Погода в Ивановке

Украина / Черниговская область     52°08′35″N   32°41′55″E
темп.,
°C
ветер,
м/с
пор.,
м/с
влажн.,
%
обл.,
%
осадки,
мм/ч
давл.,
гПа
погр.,
м
22 января, сб
сб2223:00−3зюз5119591 0.3 999450
02:00−4зюз51096100 0.6 1001398
05:00−5зюз5109685 0.3 1002338
08:00−6зюз4897100 0.4 1004202
11:00−4з359499 0.2 1006436
14:00−4зсз358995 0.3 1007425
17:00−12сз229744 0.0 101010
20:00−13сз2210097 0.0 101218
23 января, вс
вс2323:00−12с119890 0.1 101412
02:00−14с119879 0.1 101610
05:00−15св229869 0.1 101818
08:00−16св349978 0.1 102156
11:00−10всв359595 0.0 1024173
14:00−7св359398 0.0 1025262
17:00−11св369867 0.0 102973
20:00−12св499755 0.0 1031115
24 января, пн
пн2423:00−14св399868 0.0 1033117
02:00−14св499743 0.0 1034129
05:00−14ссв4129668 0.0 1034189
08:00−13ссв5139538 0.0 1035222
11:00−9ссв6149216 0.0 1034341
14:00−7ссв6129258 0.0 1032410
17:00−8ссв5119497 0.1 1032338
20:00−9св41094100 0.1 1032278
25 января, вт
вт2523:00−13ссв369755 0.0 103179
02:00−16ссв349856 0.0 103051
05:00−16св249854 0.0 102856
08:00−17с359860 0.0 102860
11:00−11ссв239281 0.0 1025177
14:00−8ссз128970 0.0 1023229
17:00−14зсз009852 0.0 102210
20:00−15юз1110098 0.0 10219
26 января, ср
ср2623:00−16ююз22100100 0.0 101913
02:00−15ююз2299100 0.0 101835
05:00−10ююз2395100 0.2 1016115
08:00−9ю2396100 1.0 1016118
11:00−7зюз1292100 0.6 1016280
14:00−6ссз2391100 0.9 1016402
17:00−7ссз249794 0.3 1016111
20:00−12сз229899 0.4 101719